User: anonymous   Login
Location: Oshawa
(43.9000°N, 78.8670°W)
Time: 07:34:49
(UTC-04:00)
Language:

CZ-4C R/B - Orbit

View from above orbital plane
View from above orbital plane
View from above satellite
View from above satellite

Ground track
Ground track

The orbit data is extracted from the following two-line orbital elements,

1 32290U 07055B   16180.18974577  .00001460  00000-0  45760-4 0  9994
2 32290  97.5266 274.0041 0069442 313.5134  46.0349 15.32558083477561
Epoch (UTC): 28 June 2016 04:33:14
Eccentricity: 0.0069442
inclination: 97.5266°
perigee height: 420 km
apogee height: 516 km
right ascension of ascending node: 274.0041°
argument of perigee: 313.5134°
revolutions per day: 15.32558083
mean anomaly at epoch: 46.0349°
orbit number at epoch: 47756

The dashed part of the orbit path shows where the satellite is in the earth's shadow,  

DLR